Flag for United Kingdom Weather past 2 weeks in Horsham, England, United Kingdom

Now
52 °F

Light rain. Passing clouds.


Feels Like: 47 °F
Forecast: 49 / 63 °F
Wind: 16 mph from Southwest

Location: London / Gatwick Airport

Current Time: Jun 2, 2015 at 2:42:01 AM

Latest Report: Jun 2, 2015 at 2:20 AM


Visibility: 4 mi

Pressure: 29.65 "Hg

Humidity: 94%

Dew point: 50 °F

Location of HorshamLocation

Historic Weather in Horsham — Graph

°F

Horsham temperature yesterday

Maximum temperature yesterday: 57 °F (at 12:20 PM)
Minimum temperature yesterday: 43 °F (at 5:20 AM)
Average temperature yesterday: 51 °F

Past Weeks' High & Low Weather Summary

 TemperatureHumidityPressure
High68 °F (May 24, 1:50 PM)100% (May 18, 10:20 AM)30.36 "Hg (May 18, 10:20 AM)
Low36 °F (May 21, 4:20 AM)39% (May 28, 5:50 PM)29.62 "Hg (May 18, 1:50 PM)
Average53 °F74%30.02 "Hg
* Reported May 18 1:20 AM — Jun 2 1:20 AM, Horsham, Weather by CustomWeather, © 2015

Note: Actual official high and low records may vary slightly from our data, if they occured in-between our weather recording intervals... More about our weather records

Advertising

Horsham weather history for previous 24 hours

 ConditionsComfort  
Time TempWeatherWind HumidityBarometerVisibility
1:20 AM
Tue, Jun 2
52 °FLight rain. Passing clouds.21 mph94%29.68 "Hg4 mi
12:50 AM52 °FLight rain. Passing clouds.17 mph88%29.68 "Hg6 mi
12:20 AM52 °FLight rain. Partly cloudy.16 mph88%29.71 "Hg4 mi
11:50 PM
Mon, Jun 1
52 °FLight rain. Partly cloudy.16 mph88%29.71 "HgN/A
11:20 PM52 °FLight rain. Passing clouds.13 mph88%29.74 "Hg5 mi
10:50 PM52 °FLight rain. Passing clouds.13 mph82%29.77 "HgN/A
10:20 PM52 °FLight rain. Passing clouds.16 mph82%29.77 "HgN/A
9:50 PM54 °FLight rain. Scattered clouds.14 mph72%29.80 "HgN/A
9:20 PM54 °FScattered clouds.16 mph67%29.80 "HgN/A
8:50 PM54 °FScattered clouds.13 mph67%29.80 "HgN/A
8:20 PM54 °FScattered clouds.12 mph67%29.80 "HgN/A
7:50 PM54 °FPartly sunny.12 mph67%29.83 "HgN/A
7:20 PM54 °FPartly sunny.12 mph67%29.83 "HgN/A
6:50 PM54 °FScattered clouds.15 mph67%29.86 "HgN/A
6:20 PM55 °FScattered clouds.10 mph55%29.86 "HgN/A
5:50 PM54 °FPassing clouds.14 mph63%29.89 "HgN/A
5:20 PM54 °FPassing clouds.14 mph67%29.92 "HgN/A
4:50 PM54 °FPassing clouds.16 mph63%29.92 "HgN/A
4:20 PM54 °FPassing clouds.15 mph63%29.92 "HgN/A
3:20 PM55 °FScattered clouds.16 mph63%29.95 "HgN/A
2:50 PM54 °FScattered showers. Scattered clouds.16 mph77%29.95 "HgN/A
2:20 PM57 °FScattered clouds.15 mph59%29.95 "HgN/A
1:50 PM55 °FScattered clouds.15 mph63%29.95 "HgN/A
1:20 PM57 °FScattered clouds.14 mph55%29.95 "HgN/A
12:50 PM57 °FScattered clouds.15 mph59%29.98 "HgN/A
12:20 PM57 °FBroken clouds.14 mph59%29.98 "HgN/A
11:50 AM55 °FScattered clouds.16 mph63%29.98 "HgN/A
11:20 AM55 °FBroken clouds.14 mph59%29.98 "HgN/A
10:50 AM55 °FScattered showers. Scattered clouds.15 mph59%29.98 "HgN/A
10:20 AM55 °FBroken clouds.13 mph63%29.98 "HgN/A
9:50 AM55 °FScattered clouds.10 mph63%30.01 "HgN/A
9:20 AM54 °FPassing clouds.13 mph67%30.01 "HgN/A
8:50 AM54 °FPassing clouds.14 mph67%30.01 "HgN/A
8:20 AM52 °FSunny.10 mph72%30.01 "Hg10 mi
7:50 AM50 °FPassing clouds.7 mph76%30.01 "HgN/A
7:20 AM48 °FSunny.7 mph76%30.01 "Hg10 mi
6:50 AM48 °FSunny.7 mph76%30.01 "Hg10 mi
6:20 AM45 °FSunny.3 mph87%29.98 "Hg10 mi
5:50 AM43 °FSunny.5 mph87%29.98 "Hg10 mi
5:20 AM43 °FClear.5 mph87%29.98 "Hg10 mi
4:20 AM45 °FClear.6 mph81%29.98 "Hg10 mi
3:50 AM45 °FClear.7 mph81%29.98 "Hg10 mi
3:20 AM45 °FClear.7 mph81%29.98 "Hg10 mi
2:50 AM45 °FClear.7 mph81%29.98 "Hg10 mi
2:20 AM45 °FClear.7 mph81%29.98 "Hg10 mi
Weather by CustomWeather, © 2015

See weather overviewHow to use our weather pages